Woodlawn, VA

12:39 AM EST on February 25, 2017 (GMT -0500)
Twin County

Weather History for KHLX - November, 2012

Change the Weather History Date:

Sunday, November 18, 2012

  Actual Average (KBLF) Record (KBLF)
Temperature  
Mean Temperature 44 °F -  
Max Temperature 53 °F 53 °F 72 °F (2016)
Min Temperature 35 °F 36 °F 9 °F (1959)
Degree Days  
Heating Degree Days 21    
Moisture  
Dew Point 34 °F    
Average Humidity 69    
Maximum Humidity 81    
Minimum Humidity 58    
Precipitation  
Precipitation 0.00 in - - ()
Sea Level Pressure  
Sea Level Pressure 30.46 in    
Wind  
Wind Speed 4 mph (NE)    
Max Wind Speed 10 mph    
Max Gust Speed -    
Visibility 10 miles    
Events      
Averages and records for this station are not official NWS values.
T = Trace of Precipitation, MM = Missing Value Source: NWS Daily Summary

Daily Weather History Graph

Daily Weather History Graph

Search for Another Location

Airport or City:

Trip Planner

Search our weather history database for the weather conditions in past years. The results will help you decide how hot, cold, wet, or windy it might be!

Date:

Astronomy

Nov. 18, 2012 Rise Set
Actual Time 7:04 AM EST 5:11 PM EST
Civil Twilight 6:37 AM EST 5:39 PM EST
Nautical Twilight 6:05 AM EST 6:11 PM EST
Astronomical Twilight 5:34 AM EST 6:41 PM EST
Moon 11:32 AM EST (11/18) 10:27 PM EST (11/18)
Length of Visible Light 11h 02m
Length of Day
10h 06m
Waxing Crescent, 30% of the Moon is Illuminated
Nov 18
Waxing Crescent
Nov 20
First Quarter
Nov 28
Full
Dec 6
Last Quarter
Dec 13
New

Hourly Weather History & Observations

Time (EST) Temp. Windchill Dew Point Humidity Pressure Visibility Wind Dir Wind Speed Gust Speed Precip Events Conditions
12:15 AM 39.2 °F 33.6 °F 26.6 °F 61% 30.48 in 10.0 mi ENE 8.1 mph - N/A   Clear
12:35 AM 39.2 °F 35.9 °F 26.6 °F 61% 30.48 in 10.0 mi ENE 4.6 mph - N/A   Clear
12:55 AM 39.2 °F 35.9 °F 26.6 °F 61% 30.48 in 10.0 mi NE 4.6 mph - N/A   Clear
1:15 AM 39.2 °F 35.9 °F 26.6 °F 61% 30.48 in 10.0 mi NE 4.6 mph - N/A   Clear
1:35 AM 39.2 °F 37.0 °F 26.6 °F 61% 30.47 in 10.0 mi NE 3.5 mph - N/A   Clear
1:55 AM 39.2 °F 35.9 °F 26.6 °F 61% 30.47 in 10.0 mi NE 4.6 mph - N/A   Clear
2:15 AM 37.4 °F 33.8 °F 26.6 °F 65% 30.48 in 10.0 mi NNE 4.6 mph - N/A   Clear
2:35 AM 37.4 °F 32.8 °F 26.6 °F 65% 30.47 in 10.0 mi NE 5.8 mph - N/A   Clear
2:55 AM 37.4 °F 33.8 °F 26.6 °F 65% 30.48 in 10.0 mi NE 4.6 mph - N/A   Clear
3:15 AM 37.4 °F 33.8 °F 26.6 °F 65% 30.47 in 10.0 mi NE 4.6 mph - N/A   Clear
3:35 AM 37.4 °F 34.9 °F 26.6 °F 65% 30.47 in 10.0 mi NNE 3.5 mph - N/A   Mostly Cloudy
3:55 AM 37.4 °F - 26.6 °F 65% 30.47 in 10.0 mi Calm Calm - N/A   Overcast
4:15 AM 37.4 °F 34.9 °F 26.6 °F 65% 30.47 in 10.0 mi NNE 3.5 mph - N/A   Overcast
4:35 AM 37.4 °F 34.9 °F 26.6 °F 65% 30.48 in 10.0 mi NNE 3.5 mph - N/A   Overcast
4:55 AM 37.4 °F - 26.6 °F 65% 30.49 in 10.0 mi Calm Calm - N/A   Overcast
5:15 AM 37.4 °F - 26.6 °F 65% 30.49 in 10.0 mi Calm Calm - N/A   Overcast
5:35 AM 35.6 °F - 28.4 °F 75% 30.49 in 10.0 mi Calm Calm - N/A   Overcast
5:55 AM 35.6 °F - 28.4 °F 75% 30.50 in 10.0 mi Calm Calm - N/A   Overcast
6:15 AM 35.6 °F - 28.4 °F 75% 30.50 in 10.0 mi Calm Calm - N/A   Overcast
6:35 AM 35.6 °F - 28.4 °F 75% 30.50 in 10.0 mi Calm Calm - N/A   Overcast
6:55 AM 35.6 °F - 28.4 °F 75% 30.50 in 10.0 mi Calm Calm - N/A   Overcast
7:15 AM 35.6 °F - 28.4 °F 75% 30.50 in 10.0 mi Calm Calm - N/A   Overcast
7:35 AM 37.4 °F - 30.2 °F 75% 30.50 in 10.0 mi Calm Calm - N/A   Overcast
7:55 AM 37.4 °F - 30.2 °F 75% 30.50 in 10.0 mi Calm Calm - N/A   Overcast
8:15 AM 37.4 °F 34.9 °F 30.2 °F 75% 30.50 in 10.0 mi North 3.5 mph - N/A   Mostly Cloudy
8:35 AM 39.2 °F - 30.2 °F 70% 30.51 in 10.0 mi Calm Calm - N/A   Mostly Cloudy
8:55 AM 39.2 °F 37.0 °F 32.0 °F 75% 30.50 in 10.0 mi North 3.5 mph - N/A   Mostly Cloudy
9:15 AM 41.0 °F 39.0 °F 32.0 °F 70% 30.51 in 10.0 mi North 3.5 mph - N/A   Mostly Cloudy
9:35 AM 42.8 °F 41.1 °F 33.8 °F 70% 30.50 in 10.0 mi NNE 3.5 mph - N/A   Mostly Cloudy
9:55 AM 42.8 °F - 33.8 °F 70% 30.50 in 10.0 mi Calm Calm - N/A   Overcast
10:15 AM 44.6 °F - 35.6 °F 71% 30.50 in 10.0 mi Calm Calm - N/A   Mostly Cloudy
10:35 AM 46.4 °F - 37.4 °F 71% 30.49 in 10.0 mi Calm Calm - N/A   Scattered Clouds
10:55 AM 48.2 °F - 39.2 °F 71% 30.49 in 10.0 mi ENE 6.9 mph - N/A   Mostly Cloudy
11:15 AM 48.2 °F - 39.2 °F 71% 30.49 in 10.0 mi NE 6.9 mph - N/A   Overcast
11:35 AM 48.2 °F - 39.2 °F 71% 30.48 in 10.0 mi ENE 10.4 mph - N/A   Overcast
11:55 AM 50.0 °F - 39.2 °F 66% 30.47 in 10.0 mi ENE 10.4 mph - N/A   Scattered Clouds
12:15 PM 50.0 °F - 39.2 °F 66% 30.46 in 10.0 mi NE 10.4 mph - N/A   Scattered Clouds
12:35 PM 51.8 °F - 39.2 °F 62% 30.45 in 10.0 mi ENE 9.2 mph - N/A   Scattered Clouds
12:55 PM 51.8 °F - 39.2 °F 62% 30.45 in 10.0 mi NNE 4.6 mph - N/A   Scattered Clouds
1:15 PM 53.6 °F - 39.2 °F 58% 30.44 in 10.0 mi North 5.8 mph - N/A   Clear
1:35 PM 53.6 °F - 39.2 °F 58% 30.44 in 10.0 mi ENE 3.5 mph - N/A   Scattered Clouds
1:55 PM 51.8 °F - 39.2 °F 62% 30.43 in 10.0 mi East 8.1 mph - N/A   Scattered Clouds
2:15 PM 53.6 °F - 39.2 °F 58% 30.42 in 10.0 mi NNE 5.8 mph - N/A   Clear
2:35 PM 53.6 °F - 39.2 °F 58% 30.41 in 10.0 mi ENE 10.4 mph - N/A   Clear
2:55 PM 51.8 °F - 39.2 °F 62% 30.41 in 10.0 mi NE 9.2 mph - N/A   Clear
3:15 PM 51.8 °F - 39.2 °F 62% 30.41 in 10.0 mi NE 5.8 mph - N/A   Clear
3:35 PM 51.8 °F - 37.4 °F 58% 30.42 in 10.0 mi ENE 6.9 mph - N/A   Clear
3:55 PM 51.8 °F - 39.2 °F 62% 30.42 in 10.0 mi NE 8.1 mph - N/A   Clear
4:15 PM 51.8 °F - 39.2 °F 62% 30.42 in 10.0 mi NE 5.8 mph - N/A   Clear
4:35 PM 50.0 °F - 37.4 °F 62% 30.43 in 10.0 mi ENE 8.1 mph - N/A   Clear
4:55 PM 50.0 °F - 39.2 °F 66% 30.43 in 10.0 mi ENE 8.1 mph - N/A   Clear
5:15 PM 48.2 °F - 37.4 °F 66% 30.43 in 10.0 mi NE 5.8 mph - N/A   Clear
5:35 PM 48.2 °F - 37.4 °F 66% 30.44 in 10.0 mi NE 3.5 mph - N/A   Clear
5:55 PM 46.4 °F 44.3 °F 37.4 °F 71% 30.44 in 10.0 mi NE 4.6 mph - N/A   Clear
6:15 PM 46.4 °F 45.2 °F 37.4 °F 71% 30.44 in 10.0 mi NE 3.5 mph - N/A   Clear
6:35 PM 46.4 °F 43.5 °F 37.4 °F 71% 30.44 in 10.0 mi ENE 5.8 mph - N/A   Clear
6:55 PM 46.4 °F 43.5 °F 37.4 °F 71% 30.44 in 10.0 mi ENE 5.8 mph - N/A   Clear
7:15 PM 44.6 °F 43.1 °F 37.4 °F 76% 30.44 in 10.0 mi NNE 3.5 mph - N/A   Clear
7:35 PM 44.6 °F 41.4 °F 37.4 °F 76% 30.44 in 10.0 mi NE 5.8 mph - N/A   Clear
7:55 PM 44.6 °F 42.2 °F 37.4 °F 76% 30.44 in 10.0 mi NE 4.6 mph - N/A   Clear
8:15 PM 44.6 °F - 37.4 °F 76% 30.45 in 10.0 mi Calm Calm - N/A   Clear
8:35 PM 42.8 °F - 37.4 °F 81% 30.45 in 10.0 mi Calm Calm - N/A   Clear
8:55 PM 42.8 °F 40.1 °F 37.4 °F 81% 30.44 in 10.0 mi NNE 4.6 mph - N/A   Clear
9:15 PM 42.8 °F 39.3 °F 37.4 °F 81% 30.44 in 10.0 mi ENE 5.8 mph - N/A   Clear
9:35 PM 42.8 °F 40.1 °F 35.6 °F 76% 30.44 in 10.0 mi NE 4.6 mph - N/A   Clear
9:55 PM 42.8 °F 40.1 °F 35.6 °F 76% 30.43 in 10.0 mi NE 4.6 mph - N/A   Clear
10:15 PM 42.8 °F 41.1 °F 35.6 °F 76% 30.43 in 10.0 mi NNE 3.5 mph - N/A   Scattered Clouds
10:35 PM 42.8 °F 40.1 °F 37.4 °F 81% 30.42 in 10.0 mi NE 4.6 mph - N/A   Scattered Clouds
10:55 PM 41.0 °F 39.0 °F 35.6 °F 81% 30.43 in 10.0 mi NNW 3.5 mph - N/A   Clear
11:35 PM 41.0 °F - 35.6 °F 81% 30.43 in 10.0 mi Calm Calm - N/A   Scattered Clouds
11:55 PM 41.0 °F 39.0 °F 35.6 °F 81% 30.43 in 10.0 mi North 3.5 mph - N/A   Clear